Regional Weather Roundup
Issued by NWS Green Bay, WI

Home | Current Version | Previous Version | Text Only | Print | Product List | Glossary On
Versions: 1 2 3 4 5 6 7 8 9 10 11 12 13 14 15 16 17 18 19 20 21 22 23 24 25 26 27 28 29 30 31 32 33 34 35 36 37 38 39 40 41 42 43 44 45 46 47 48 49 50
000
ASUS43 KGRB 210400
RWRGRB

NORTH-CENTRAL AND NORTHEAST WISCONSIN REGIONAL WEATHER ROUNDUP
NATIONAL WEATHER SERVICE GREEN BAY WI
1100 PM CDT WED SEP 20 2017

WIZ005-009-010>012-018-019-210500-
NORTH CENTRAL WISCONSIN

CITY           SKY/WX    TMP DP  RH WIND       PRES   REMARKS
IRONWOOD       PTCLDY    53  52  96 CALM      29.96R
MANITOWISH WTR NOT AVBL
ARBOR VITAE    NOT AVBL
EAGLE RIVER    NOT AVBL
LAND O LAKES   FOG       62  62 100 CALM      29.98R VSB<1/4
RHINELANDER    FOG       61  61 100 CALM      29.96R VSB 1/4
PHILLIPS       FOG       52  52 100 CALM      29.95R VSB 3/4
ANTIGO         NOT AVBL
TOMAHAWK       NOT AVBL
MERRILL        NOT AVBL
$$

WIZ013-073-210500-
NORTHEAST WISCONSIN

CITY           SKY/WX    TMP DP  RH WIND       PRES   REMARKS
IRON MOUNTAIN  FOG       66  64  94 S3        29.91R VSB 3/4
MARINETTE      CLOUDY    71  68  90 N6        29.90R
$$

WIZ017-030-035>037-045-210500-
CENTRAL WISCONSIN

CITY           SKY/WX    TMP DP  RH WIND       PRES   REMARKS
MEDFORD        NOT AVBL
WAUSAU         CLOUDY    65  64  97 CALM      29.92R FOG
MOSINEE        NOT AVBL
MARSHFIELD     CLEAR     61  58  90 NW3       29.92R
WISC RAPIDS    CLOUDY    67  67 100 CALM      29.94R FOG
STEVENS POINT  NOT AVBL
WAUPACA        NOT AVBL
SHAWANO        CLOUDY    70  67  90 W7        29.90R
CLINTONVILLE   NOT AVBL
WAUTOMA        CLOUDY    70  70 100 E6        29.94R
$$

WIZ038-039-048-051-210500-
FOX VALLEY

CITY           SKY/WX    TMP DP  RH WIND       PRES   REMARKS
NWS GREEN BAY  LGT RAIN  70  68  93 S9        29.89R
APPLETON       CLOUDY    70  68  94 S9        29.91R
OSHKOSH        TSTM      69  67  93 SE21      29.92F FOG
FOND DU LAC    CLOUDY    69  65  86 SE12      29.96R
$$

WIZ022-050-052-210500-
EAST CENTRAL WISCONSIN

CITY           SKY/WX    TMP DP  RH WIND       PRES   REMARKS
EPHRAIM        FAIR      69  67  93 CALM      29.90R
WASHINGTON ISL NOT AVBL
STURGEON BAY   LGT RAIN  70  69  97 NW10      29.90R
MANITOWOC      LGT RAIN  69  67  93 S13       29.93R
SHEBOYGAN      TSTM      67  67 100 SW7       30.00S FOG
$$

LMZ563-521-522-541>543-210500-
LAKESHORE

STATION/POSITION TIME  TEMP    WIND        PRES    VSBY  WAVE
                       AIR SEA DIR/SP/G                  HT/PER
                 (UTC) (F)     (DEG/KT/KT) (MB)    (MI)  (FT/S)
SHEBOYGAN LKSHOR 0300   73     310/  8/ 10 1013.4R
KEWAUNEE LKSHORE 0330   63     190/  8/  9 1012.6R
NORTHPORT PIER   0340   73     230/  3/  7 1011.9R
N MID LAKE BUOY  0250   68 65  140/ 12/ 14 1010.7F         3/ 6
S GREEN BAY BUOY 0330   69 66  210/  8/  8 1011.6R
SISTER BAY LKSHO 0319   73     190/ 13/ 15   N/A
MENOMINEE LKSHOR 0330   72     260/  5/  7 1011.9R
$$




USA.gov is the U.S. government's official web portal to all federal, state and local government web resources and services.